Theta_e
338 337 335 334 332 331 330 329 328 328 328 328 328 328 329 329 329 329 330 330 331 333 333 334 337 341 343 343 346 348 348 349 350 348 346 346 349 346 346 350 351 351 351
335 333 332 331 330 329 327 327 326 326 327 327 327 328 328 328 328 328 328 329 329 330 331 331 331 332 335 340 343 344 344 347 348 349 346 347 349 350 346 350 351 351 350
332 331 329 328 326 326 326 326 326 326 325 325 325 325 326 324 323 323 324 325 328 328 328 328 330 332 331 331 334 338 342 343 345 347 347 345 345 346 348 350 350 350 346
330 329 327 326 326 325 325 325 324 323 323 323 323 323 324 322 320 321 322 324 326 326 327 328 328 329 332 332 330 332 338 340 343 345 345 345 345 342 344 345 345 347 346
328 327 327 326 325 324 323 322 321 321 321 321 320 320 320 317 315 317 319 322 322 323 324 325 326 326 326 325 325 326 330 335 339 340 343 344 346 345 343 343 344 345 346
326 326 326 325 323 321 321 320 319 318 316 316 316 316 314 311 309 314 317 319 320 321 321 321 322 323 321 320 322 322 324 329 334 336 338 340 342 344 344 343 341 340 343
325 325 324 322 321 321 319 316 316 316 315 315 315 314 313 310 306 311 315 317 318 319 318 317 318 318 318 318 320 323 327 328 330 332 335 336 337 339 341 342 344 342 341
324 323 322 320 320 320 317 316 315 315 315 315 314 314 313 309 306 309 312 314 316 318 318 317 317 317 316 316 320 322 323 326 329 329 329 331 333 334 335 337 339 344 343
323 320 319 319 320 319 317 317 317 316 316 315 315 314 314 312 306 307 313 311 313 314 317 317 315 315 311 312 319 320 321 322 323 323 325 326 327 328 328 332 337 341 345
321 320 319 318 318 317 318 318 318 318 317 317 317 315 313 313 309 306 310 310 312 312 312 313 313 311 310 310 315 315 316 317 320 322 324 327 329 330 331 333 334 336 341
321 321 319 318 318 319 319 319 318 318 318 317 317 318 317 315 313 309 308 310 311 311 310 309 310 309 310 309 309 311 311 314 317 319 320 319 320 323 326 328 332 334 339
321 320 320 320 317 317 319 319 319 319 318 317 316 315 315 317 313 310 310 310 310 312 310 310 310 309 309 310 310 308 310 312 314 315 315 315 316 317 318 322 324 329 333
319 319 319 319 318 317 318 318 317 316 316 315 314 314 314 315 315 313 311 310 311 311 310 310 310 310 310 311 309 309 310 310 310 312 312 313 313 313 316 320 318 322 327
319 319 318 318 316 317 316 316 316 316 316 315 315 315 314 314 313 311 311 311 310 310 310 312 310 311 311 311 311 311 311 311 310 310 309 309 310 312 313 312 316 316 321
318 317 317 315 316 316 316 315 315 315 313 312 314 314 314 314 313 309 308 309 310 309 308 312 311 310 310 310 310 310 310 311 311 310 310 310 308 308 311 310 310 314 316
316 316 315 315 316 316 316 317 315 313 313 313 311 310 312 311 310 308 308 308 308 308 311 312 311 311 310 309 308 308 308 309 309 310 309 309 308 307 307 309 310 310 313
315 315 315 314 316 316 316 316 316 315 314 314 313 313 312 311 310 310 308 308 308 309 312 312 312 311 311 311 310 309 309 308 308 308 309 308 307 307 307 308 308 309 311
316 313 316 317 317 318 318 317 317 316 316 316 315 315 314 313 311 311 311 308 311 312 311 312 312 312 311 311 310 310 310 309 308 307 307 307 307 306 306 306 308 308 307
316 317 318 318 318 317 317 316 317 317 318 318 318 316 316 315 315 313 313 312 313 313 313 313 313 312 311 311 311 310 310 308 307 308 307 306 306 306 306 306 306 307 306
317 316 316 317 317 317 318 317 317 318 318 318 318 318 319 318 317 316 315 315 315 315 314 313 313 313 311 310 310 310 309 310 308 308 306 306 305 305 305 305 305 305 308
317 318 318 316 317 317 318 318 318 318 318 318 318 319 317 314 314 314 314 314 314 314 314 314 313 313 312 310 310 309 308 309 307 306 305 304 304 304 304 304 304 305 305
318 318 318 318 318 318 318 318 318 318 318 319 318 315 313 312 312 313 314 315 315 315 314 314 313 312 311 311 309 308 308 307 305 304 303 302 302 303 303 303 303 304 305
319 319 319 319 319 319 319 318 319 319 318 315 314 312 310 311 312 313 314 313 313 313 313 311 311 310 309 307 306 305 304 303 302 300 299 300 301 302 302 302 303 303 304
319 319 319 318 319 319 319 319 319 316 314 312 310 310 310 309 310 309 308 308 307 306 306 305 304 304 303 302 302 301 301 298 297 297 297 297 299 300 301 302 302 303 303
319 319 319 320 320 320 319 317 315 313 312 310 309 309 308 307 306 305 305 304 304 303 303 302 302 301 301 302 302 301 299 298 297 297 296 296 297 299 300 302 302 302 303
320 320 321 321 320 318 316 314 313 311 309 308 308 307 305 305 304 304 303 302 302 301 301 301 301 302 302 302 301 299 298 298 298 298 298 294 297 299 300 301 301 302 302
Wind_Speed
13 12 10 10 10 9 7 6 5 6 8 9 10 11 10 10 11 11 12 10 12 13 12 13 14 14 14 15 14 15 15 12 8 18 19 19 19 21 19 17 16 14 14
11 11 9 10 9 8 7 7 7 7 8 9 9 10 11 10 11 12 12 12 12 12 12 13 14 14 16 16 15 15 18 16 13 15 15 16 20 19 20 18 17 15 13
9 9 8 9 9 8 7 7 7 7 8 9 9 8 9 11 12 14 13 12 12 11 11 12 14 14 15 16 18 19 17 16 17 15 18 17 13 14 16 16 17 18 17
9 9 10 10 8 7 6 7 7 7 7 7 7 9 9 11 13 14 14 13 12 12 11 12 12 13 15 15 16 18 19 19 16 16 17 18 17 15 13 14 17 20 25
9 10 11 9 9 8 8 9 10 10 10 10 10 11 10 13 16 17 15 13 13 13 12 13 13 13 16 15 17 17 17 18 19 16 14 15 18 18 16 18 17 15 18
10 11 10 10 10 11 11 10 9 9 11 11 12 12 14 14 18 17 14 12 12 14 14 13 14 16 17 19 20 19 15 16 17 18 18 16 18 19 19 19 20 18 9
11 10 9 9 10 9 9 10 10 10 9 10 11 11 13 17 24 18 15 13 14 15 14 14 15 15 16 20 20 18 16 16 15 17 19 20 19 19 19 19 18 19 18
10 9 8 8 8 8 9 9 9 8 8 9 10 11 13 18 24 21 17 14 15 15 15 14 15 17 19 19 18 16 16 15 15 16 17 18 18 17 18 22 25 15 20
10 9 8 8 8 8 9 7 5 5 5 6 7 10 12 14 23 25 17 15 15 13 14 15 18 19 24 22 16 16 16 16 18 19 19 21 23 19 19 20 19 17 17
10 9 8 8 8 8 6 4 3 3 4 5 7 8 9 11 14 19 19 17 15 15 14 16 19 20 23 25 19 19 19 19 20 20 17 18 19 20 22 20 22 21 19
9 8 8 8 7 5 4 2 3 4 5 6 7 6 4 5 8 14 17 16 16 14 15 16 17 21 19 22 22 20 20 18 18 17 16 15 17 18 19 21 17 20 21
12 10 9 7 3 4 2 2 4 5 4 5 5 6 5 4 5 9 13 15 16 14 16 15 16 18 18 13 19 23 20 19 19 19 19 18 19 19 19 20 22 23 23
12 10 8 5 2 1 1 2 4 2 5 5 6 6 7 7 7 8 10 14 13 13 17 15 14 16 16 13 17 17 17 20 20 20 20 21 21 21 21 19 21 20 21
10 8 6 3 1 1 2 1 2 4 6 6 6 7 8 8 11 12 11 12 11 13 18 14 15 12 13 14 16 15 17 17 17 18 20 20 21 21 20 21 22 22 20
8 8 5 4 3 3 1 2 4 5 8 10 9 8 9 9 10 10 9 10 11 13 16 13 15 16 17 17 18 18 18 18 18 20 19 19 21 21 20 21 20 21 15
9 9 6 5 3 0 2 3 4 6 9 8 8 9 10 12 12 11 11 11 11 12 13 12 13 14 16 17 18 18 18 19 20 20 20 20 20 20 21 21 18 19 19
8 8 7 2 1 3 5 7 9 5 5 3 4 8 13 15 14 14 14 14 13 12 14 15 13 13 13 15 16 18 19 20 19 20 20 20 21 20 19 18 20 20 19
8 5 3 2 3 5 6 7 7 6 8 9 6 8 11 13 15 14 15 15 16 9 15 14 12 14 13 14 17 20 20 20 21 20 21 21 21 21 21 20 16 15 18
8 6 4 4 4 6 8 8 9 9 11 13 17 11 7 11 15 17 16 13 14 14 15 16 14 14 13 15 16 18 21 21 21 21 22 22 22 22 22 21 21 15 16
7 5 5 8 8 8 8 8 11 13 14 15 16 16 15 15 17 18 16 17 11 16 15 16 15 14 15 15 17 16 19 25 23 23 23 23 23 23 23 22 21 20 17
6 5 6 9 9 8 9 12 14 16 17 18 17 14 8 14 17 15 16 15 14 13 15 16 17 15 15 13 18 17 20 24 25 25 23 24 24 24 23 22 22 20 20
6 5 5 6 8 10 12 14 17 16 15 15 15 13 12 15 16 15 14 14 10 11 13 15 15 13 14 16 17 18 20 23 24 22 23 25 24 23 23 22 22 22 20
7 7 8 10 11 11 14 14 13 12 11 12 15 16 16 14 13 13 13 13 13 12 11 13 14 14 14 16 16 19 21 21 20 21 26 24 24 23 23 22 22 22 20
8 9 11 11 11 12 13 9 8 5 9 12 14 14 13 12 12 11 11 12 13 13 13 14 14 14 16 17 17 17 16 18 23 21 21 23 23 23 22 22 22 21 22
9 9 11 12 11 9 5 7 8 9 11 12 12 11 10 11 11 12 12 12 13 14 14 14 13 14 15 17 15 14 22 26 23 23 20 20 22 23 22 21 21 21 22
9 12 12 9 6 3 4 6 7 10 12 11 9 9 10 10 11 12 12 13 14 14 14 14 13 14 15 14 13 23 25 26 27 26 25 19 19 20 20 21 21 21 21
Wind_Direction
110 105 101 93 88 89 79 62 44 20 8 4 1 359 355 358 353 350 340 330 329 322 321 319 312 314 311 308 290 282 274 258 253 275 257 255 261 260 266 260 250 245 246
103 97 91 88 85 77 69 52 39 23 11 7 5 10 7 2 358 355 351 344 338 338 333 326 317 313 304 297 297 289 279 276 265 265 277 258 259 262 259 254 257 247 243
103 98 93 80 71 62 52 43 34 22 12 12 12 10 9 11 1 357 350 340 338 340 341 343 336 328 315 306 301 303 295 278 271 264 269 274 269 266 260 255 251 249 239
108 102 94 82 76 68 61 53 44 37 33 31 23 22 23 14 7 359 350 343 337 337 337 340 344 346 338 324 305 300 297 293 279 273 268 266 263 260 259 262 257 247 247
117 105 95 88 81 78 73 69 68 66 62 56 48 40 35 26 9 1 353 356 350 345 340 340 342 344 -0 348 351 338 327 314 299 288 285 273 265 266 260 255 243 249 260
101 93 94 88 81 85 81 74 71 68 61 56 51 48 39 28 15 6 11 8 3 1 355 351 349 356 353 345 334 325 319 313 306 296 295 288 286 283 279 273 276 267 252
89 89 89 92 100 98 95 89 80 78 76 67 59 53 45 30 27 28 26 18 16 15 13 5 2 356 351 342 333 331 323 314 301 301 297 292 296 288 294 288 254 269 266
110 109 112 118 120 112 110 100 93 85 71 61 54 48 43 29 29 31 33 20 21 22 22 18 12 359 352 346 336 338 337 324 320 317 305 303 298 301 295 284 294 271 269
119 116 115 122 128 122 110 95 87 70 56 52 42 40 34 27 25 26 22 17 19 23 22 18 16 8 3 -0 351 347 341 339 332 326 316 305 298 294 283 287 274 267 260
124 116 108 116 127 119 109 94 53 12 26 7 16 21 23 21 16 26 27 19 17 13 19 17 12 14 16 19 14 -0 349 341 335 334 331 324 315 301 280 256 266 262 255
129 129 130 133 129 115 97 46 7 351 349 356 -0 353 352 356 1 12 22 19 10 5 9 10 7 8 8 14 20 10 5 356 350 343 340 341 336 331 330 328 308 275 271
149 142 137 134 124 102 68 17 329 335 342 344 356 341 22 357 340 354 4 7 8 354 1 356 353 357 359 347 3 6 9 2 2 2 -0 354 348 337 328 322 320 315 284
149 141 134 122 119 38 324 317 290 321 345 9 10 8 12 13 7 352 355 353 350 348 347 332 339 342 343 349 345 357 358 2 1 358 356 351 351 344 328 321 323 324 318
148 143 138 146 116 262 246 239 324 343 346 349 349 355 357 -0 17 1 354 349 350 346 343 337 334 330 337 340 345 348 348 353 348 349 348 346 344 344 351 344 333 335 324
149 144 144 136 133 141 158 353 324 309 315 313 317 327 335 335 354 331 318 326 333 336 331 329 350 351 349 351 348 345 340 343 341 340 336 338 339 341 343 346 342 337 328
154 153 139 140 157 145 317 314 252 307 317 311 275 277 294 287 298 292 298 301 317 331 323 344 348 353 353 352 350 347 346 344 343 330 334 333 333 333 337 336 342 344 333
156 142 147 201 240 304 311 305 307 309 290 327 310 297 283 280 283 289 284 288 292 291 295 334 334 340 344 346 346 345 344 344 334 337 332 331 330 326 326 326 334 337 338
162 166 203 233 276 295 294 295 291 316 318 315 271 272 278 285 279 286 297 287 281 261 271 296 312 320 324 334 335 336 339 333 341 332 329 327 327 325 323 323 320 325 329
181 198 220 259 282 311 293 283 281 295 302 318 325 322 297 293 297 294 277 261 286 295 292 299 300 298 317 324 329 326 323 331 324 328 325 325 324 322 319 317 316 314 320
203 236 269 289 284 282 283 284 298 303 309 313 308 315 316 314 310 309 281 249 294 290 300 300 302 294 295 297 310 311 311 315 325 325 325 321 319 319 315 314 312 312 308
230 231 246 276 263 280 300 295 301 305 307 312 312 320 297 322 310 307 311 307 314 322 309 313 317 307 295 292 305 314 308 314 318 321 322 320 318 314 312 309 307 306 303
241 249 251 260 277 282 289 306 299 302 311 309 316 331 342 317 330 321 325 359 343 330 322 316 317 313 302 309 314 306 311 312 318 321 321 317 312 311 309 308 306 305 304
236 248 265 274 280 284 283 296 308 311 315 322 327 331 331 333 329 347 349 332 325 323 329 328 318 319 323 316 313 316 316 320 324 320 314 310 308 307 309 304 302 303 303
253 269 279 288 295 306 299 309 306 309 317 329 331 334 339 340 343 346 339 337 333 329 327 323 320 319 322 321 320 322 330 326 318 316 312 306 302 301 303 302 301 301 299
266 282 292 299 306 304 308 310 331 329 329 330 335 341 340 337 338 338 337 333 331 328 327 325 323 324 325 326 327 328 322 323 324 321 318 306 301 298 294 293 298 303 302
295 293 294 291 283 280 308 329 331 330 333 332 338 340 336 336 339 335 335 333 332 329 328 325 326 327 328 327 330 326 329 331 326 322 317 307 303 301 301 301 300 299 299